User: anonymous   Login
Location: Unspecified
(0.0000°N, 0.0000°E)
Time: 00:14:38
(UTC+00:00)
Language:

DMSP B5D1-2 - Orbit

View from above orbital plane
View from above orbital plane
View from above satellite
View from above satellite

Ground track
Ground track

The orbit data is extracted from the following two-line orbital elements,

1 10033U 77044A   18110.86408096 0.00000030  00000-0  11720-4 0    02
2 10033  99.1083 343.6526 0039988 208.4910 151.5089 14.29219956    06
Epoch (UTC): 20 April 2018 20:44:16
Eccentricity: 0.0039988
inclination: 99.1083°
perigee height: 765 km
apogee height: 823 km
right ascension of ascending node: 343.6526°
argument of perigee: 208.4910°
revolutions per day: 14.29219956
mean anomaly at epoch: 151.5089°
orbit number at epoch: 0

The dashed part of the orbit path shows where the satellite is in the earth's shadow,  

DLR